Location: Bergfeld
(52.0500°N, 11.7833°E)
Time: 18:25:47
(UTC+00:00)

Cosmos 2369 Rocket - Pass Details

Date: 17 February 2020
Orbit: 827 x 854 km, 71.0° (Epoch: 05 April)

Event Time Altitude Azimuth Distance (km) Brightness Sun altitude
Exits shadow 04:49:39 - 324° (NW) 2,869 4.6 -15.3°
Reaches altitude 10° 04:50:41 10° 321° (NW) 2,493 4.3 -15.1°
Maximum altitude 04:56:10 49° 249° (WSW) 1,098 2.4 -14.3°
Drops below altitude 10° 05:01:37 10° 176° (S) 2,479 4.7 -13.4°
Sets 05:04:07 0° 171° (S) 3,409 5.5 -13.1°
